Concordia, KS

8:37 AM CDT on October 19, 2017 (GMT -0500)
Blosser Municipal

Weather History for KCNK - July, 2012

Change the Weather History Date:

Monday, July 2, 2012

  Actual Average Record
Temperature  
Mean Temperature 84 °F 78 °F  
Max Temperature 95 °F 90 °F 108 °F (1990)
Min Temperature 72 °F 66 °F 51 °F (1924)
Degree Days  
Heating Degree Days 0 0  
Month to date heating degree days 0 0  
Since 1 June heating degree days 13 13  
Since 1 July heating degree days 0 0  
Cooling Degree Days 19 13  
Month to date cooling degree days 35 26  
Year to date cooling degree days 678 380  
Since 1 June cooling degree days 434 291  
Growing Degree Days 34 (Base 50)    
Moisture  
Dew Point 64 °F    
Average Humidity 57    
Maximum Humidity 79    
Minimum Humidity 34    
Precipitation  
Precipitation 0.00 in 0.13 in 1.40 in (1981)
Month to date precipitation 0.00 0.27  
Year to date precipitation 13.69 14.31  
Snow  
Snow 0.00 in 0.00 in 0.00 in ()
Month to date snowfall 0.0 0.0  
Year to date snowfall 5.8 13.7  
Since 1 July snowfall 0.0 0.0  
Snow Depth 0.00 in    
Sea Level Pressure  
Sea Level Pressure 29.84 in    
Wind  
Wind Speed 12 mph (South)    
Max Wind Speed 21 mph    
Max Gust Speed 26 mph    
Visibility 10 miles    
Events      
T = Trace of Precipitation, MM = Missing Value Source: NWS Daily Summary

Daily Weather History Graph

Daily Weather History Graph

Search for Another Location

Airport or City:

Trip Planner

Search our weather history database for the weather conditions in past years. The results will help you decide how hot, cold, wet, or windy it might be!

Date:

Astronomy

Jul. 02, 2012 Rise Set
Actual Time 6:07 AM CDT 9:01 PM CDT
Civil Twilight 5:35 AM CDT 9:33 PM CDT
Nautical Twilight 4:54 AM CDT 10:14 PM CDT
Astronomical Twilight 4:07 AM CDT 11:01 PM CDT
Moon 8:05 PM CDT (7/2) 4:56 AM CDT (7/2)
Length of Visible Light 15h 58m
Length of Day
14h 54m
Waxing Gibbous, 98% of the Moon is Illuminated
Jul 2
Waxing Gibbous
Jul 3
Full
Jul 10
Last Quarter
Jul 18
New
Jul 26
First Quarter

Hourly Weather History & Observations

Time (CDT) Temp. Heat Index Dew Point Humidity Pressure Visibility Wind Dir Wind Speed Gust Speed Precip Events Conditions
12:55 AM 80.1 °F 80.9 °F 60.1 °F 50% 29.85 in 10.0 mi South 15.0 mph - N/A   Clear
1:55 AM 79.0 °F - 61.0 °F 54% 29.84 in 10.0 mi South 15.0 mph - N/A   Clear
2:55 AM 77.0 °F - 62.1 °F 60% 29.84 in 10.0 mi South 16.1 mph - N/A   Clear
3:55 AM 77.0 °F - 63.0 °F 62% 29.84 in 10.0 mi South 15.0 mph - N/A   Clear
4:55 AM 75.9 °F - 64.0 °F 67% 29.84 in 10.0 mi South 15.0 mph - N/A   Clear
5:55 AM 73.9 °F - 64.9 °F 73% 29.86 in 10.0 mi SE 5.8 mph - N/A   Clear
6:55 AM 73.9 °F - 66.0 °F 76% 29.87 in 10.0 mi South 6.9 mph - N/A   Clear
7:55 AM 75.9 °F - 66.0 °F 71% 29.88 in 10.0 mi South 12.7 mph - N/A   Clear
8:55 AM 79.0 °F - 66.9 °F 66% 29.90 in 10.0 mi South 15.0 mph 23.0 mph N/A   Clear
9:55 AM 82.0 °F 84.9 °F 68.0 °F 62% 29.90 in 10.0 mi South 12.7 mph - N/A   Clear
10:55 AM 86.0 °F 89.4 °F 68.0 °F 55% 29.89 in 10.0 mi South 9.2 mph - N/A   Clear
11:55 AM 90.0 °F 91.3 °F 64.0 °F 42% 29.88 in 10.0 mi SSW 18.4 mph - N/A   Clear
12:55 PM 91.0 °F 93.0 °F 64.9 °F 42% 29.87 in 10.0 mi South 16.1 mph 19.6 mph N/A   Clear
1:55 PM 93.0 °F 94.2 °F 63.0 °F 37% 29.86 in 10.0 mi South 13.8 mph 23.0 mph N/A   Partly Cloudy
2:55 PM 93.9 °F 94.8 °F 62.1 °F 35% 29.84 in 10.0 mi South 13.8 mph - N/A   Clear
3:55 PM 95.0 °F 95.6 °F 62.1 °F 33% 29.83 in 10.0 mi SSW 13.8 mph - N/A   Clear
4:55 PM 93.9 °F 94.8 °F 62.1 °F 35% 29.82 in 10.0 mi South 11.5 mph - N/A   Clear
5:55 PM 93.0 °F 93.8 °F 62.1 °F 36% 29.80 in 10.0 mi South 12.7 mph - N/A   Clear
6:55 PM 91.9 °F 92.5 °F 62.1 °F 37% 29.79 in 10.0 mi South 10.4 mph 20.7 mph N/A   Clear
7:55 PM 89.1 °F 90.3 °F 64.0 °F 43% 29.79 in 10.0 mi South 10.4 mph - N/A   Clear
8:55 PM 86.0 °F 86.8 °F 63.0 °F 46% 29.79 in 10.0 mi SSE 9.2 mph - N/A   Clear
9:55 PM 82.9 °F 84.0 °F 63.0 °F 51% 29.80 in 10.0 mi South 8.1 mph - N/A   Clear
10:55 PM 82.0 °F 83.1 °F 63.0 °F 52% 29.83 in 10.0 mi South 10.4 mph - N/A   Clear
11:55 PM 81.0 °F 82.5 °F 64.0 °F 56% 29.83 in 10.0 mi South 10.4 mph - N/A   Clear